| time (UTC) | temp F | wind direction | speed MPH | gust MPH | rain 1hr in | rain 24hr in | rain mn in | humidity % | barometer mb |
| 20260905052329 | 81 | 147 | 0.0 | 0.0 | 0.00 | 0.05 | 0.00 | 88 | 1013.8 |
| 20260905051841 | 81 | 147 | 0.0 | 0.0 | 0.00 | 0.05 | 0.00 | 88 | 1013.8 |
| 20260905051334 | 82 | 147 | 0.0 | 2.0 | 0.00 | 0.05 | 0.00 | 88 | 1013.7 |
| 20260905050829 | 82 | 147 | 0.0 | 2.0 | 0.00 | 0.05 | 0.00 | 88 | 1013.7 |
| 20260905050320 | 82 | 183 | 0.0 | 2.0 | 0.00 | 0.05 | 0.00 | 87 | 1013.7 |
| 20260905045828 | 82 | 183 | 0.0 | 2.0 | 0.00 | 0.05 | 0.05 | 87 | 1013.7 |
| 20260905045340 | 82 | 183 | 0.0 | 3.0 | 0.00 | 0.05 | 0.05 | 87 | 1013.7 |
| 20260905044833 | 82 | 125 | 0.0 | 3.0 | 0.00 | 0.05 | 0.05 | 87 | 1013.7 |
| 20260905044325 | 82 | 184 | 1.0 | 3.0 | 0.00 | 0.05 | 0.05 | 87 | 1013.8 |
| 20260905043842 | 82 | 183 | 2.0 | 3.0 | 0.00 | 0.05 | 0.05 | 86 | 1013.8 |
| 20260905043332 | 82 | 183 | 1.0 | 4.0 | 0.00 | 0.05 | 0.05 | 86 | 1013.8 |
| 20260905042843 | 82 | 184 | 1.0 | 4.0 | 0.00 | 0.05 | 0.05 | 86 | 1013.8 |
| 20260905042355 | 82 | 154 | 1.0 | 4.0 | 0.00 | 0.05 | 0.05 | 86 | 1013.8 |
| 20260905041829 | 82 | 172 | 2.0 | 4.0 | 0.00 | 0.05 | 0.05 | 85 | 1013.8 |
| 20260905041322 | 83 | 189 | 1.0 | 5.0 | 0.00 | 0.05 | 0.05 | 85 | 1013.8 |
| 20260905040835 | 83 | 186 | 2.0 | 5.0 | 0.00 | 0.05 | 0.05 | 85 | 1013.8 |
| 20260905040326 | 83 | 184 | 3.0 | 6.0 | 0.00 | 0.05 | 0.05 | 84 | 1013.8 |
| 20260905035834 | 83 | 143 | 2.0 | 6.0 | 0.00 | 0.05 | 0.05 | 84 | 1013.8 |
| 20260905035326 | 83 | 175 | 2.0 | 6.0 | 0.00 | 0.05 | 0.05 | 84 | 1013.8 |
| 20260905034839 | 83 | 194 | 3.0 | 7.0 | 0.00 | 0.05 | 0.05 | 84 | 1013.8 |
| 20260905034355 | 82 | 170 | 2.0 | 7.0 | 0.00 | 0.05 | 0.05 | 84 | 1013.8 |
| 20260905033825 | 82 | 185 | 2.0 | 3.0 | 0.00 | 0.05 | 0.05 | 84 | 1013.8 |
| 20260905033338 | 82 | 175 | 2.0 | 3.0 | 0.00 | 0.05 | 0.05 | 84 | 1013.8 |
| 20260905032830 | 82 | 185 | 0.0 | 0.0 | 0.00 | 0.05 | 0.05 | 84 | 1014.0 |
| 20260905032345 | 82 | 185 | 0.0 | 0.0 | 0.00 | 0.05 | 0.05 | 83 | 1014.0 |
| 20260905031856 | 82 | 185 | 0.0 | 0.0 | 0.00 | 0.05 | 0.05 | 83 | 1014.0 |
| 20260905031347 | 82 | 185 | 0.0 | 0.0 | 0.00 | 0.05 | 0.05 | 83 | 1014.0 |
| 20260905030839 | 82 | 185 | 0.0 | 0.0 | 0.00 | 0.05 | 0.05 | 82 | 1014.0 |
| 20260905030335 | 82 | 185 | 0.0 | 0.0 | 0.00 | 0.05 | 0.05 | 82 | 1014.0 |
| 20260905025826 | 82 | 185 | 0.0 | 0.0 | 0.00 | 0.05 | 0.05 | 82 | 1013.8 |
| 20260905025340 | 82 | 185 | 0.0 | 1.0 | 0.00 | 0.05 | 0.05 | 82 | 1013.8 |
| 20260905024835 | 82 | 185 | 0.0 | 2.0 | 0.00 | 0.05 | 0.05 | 82 | 1013.8 |
| 20260905024330 | 82 | 185 | 0.0 | 2.0 | 0.00 | 0.05 | 0.05 | 82 | 1013.8 |
| 20260905023824 | 82 | 185 | 0.0 | 0.0 | 0.00 | 0.05 | 0.05 | 81 | 1013.8 |
| 20260905023336 | 82 | 185 | 0.0 | 0.0 | 0.00 | 0.05 | 0.05 | 81 | 1013.8 |
| 20260905022830 | 82 | 185 | 0.0 | 1.0 | 0.00 | 0.05 | 0.05 | 81 | 1013.6 |
| 20260905022337 | 82 | 185 | 0.0 | 1.0 | 0.00 | 0.05 | 0.05 | 80 | 1013.6 |
| 20260905021852 | 82 | 185 | 0.0 | 0.0 | 0.00 | 0.05 | 0.05 | 80 | 1013.6 |
| 20260905021323 | 82 | 185 | 0.0 | 0.0 | 0.00 | 0.05 | 0.05 | 80 | 1013.4 |
| 20260905020837 | 82 | 185 | 0.0 | 2.0 | 0.00 | 0.05 | 0.05 | 80 | 1013.4 |
| 20260905020332 | 82 | 185 | 0.0 | 2.0 | 0.00 | 0.05 | 0.05 | 79 | 1013.4 |
| 20260905015843 | 82 | 185 | 1.0 | 4.0 | 0.00 | 0.05 | 0.05 | 79 | 1013.3 |
| 20260905015354 | 82 | 185 | 2.0 | 5.0 | 0.00 | 0.05 | 0.05 | 78 | 1013.3 |
| 20260905014847 | 82 | 142 | 3.0 | 5.0 | 0.00 | 0.05 | 0.05 | 78 | 1013.3 |
| 20260905014338 | 82 | 181 | 0.0 | 5.0 | 0.00 | 0.05 | 0.05 | 78 | 1013.2 |
| 20260905013832 | 82 | 189 | 2.0 | 5.0 | 0.00 | 0.05 | 0.05 | 79 | 1013.2 |
| 20260905013326 | 81 | 158 | 4.0 | 7.0 | 0.00 | 0.05 | 0.05 | 79 | 1013.2 |
| 20260905012840 | 81 | 134 | 3.0 | 7.0 | 0.00 | 0.05 | 0.05 | 79 | 1013.2 |
| 20260905012354 | 81 | 156 | 4.0 | 12.0 | 0.00 | 0.05 | 0.05 | 80 | 1013.2 |
| 20260905011825 | 81 | 140 | 4.0 | 12.0 | 0.00 | 0.05 | 0.05 | 80 | 1013.2 |
| 20260905011339 | 81 | 137 | 4.0 | 8.0 | 0.00 | 0.05 | 0.05 | 80 | 1013.2 |
| 20260905010855 | 81 | 127 | 5.0 | 11.0 | 0.00 | 0.05 | 0.05 | 80 | 1013.2 |
| 20260905010326 | 81 | 139 | 8.0 | 12.0 | 0.00 | 0.05 | 0.05 | 79 | 1013.2 |
| 20260905005859 | 82 | 127 | 8.0 | 12.0 | 0.00 | 0.05 | 0.05 | 79 | 1012.9 |
| 20260905005347 | 83 | 144 | 8.0 | 16.0 | 0.00 | 0.05 | 0.05 | 79 | 1013.0 |
| 20260905004838 | 84 | 165 | 8.0 | 21.0 | 0.00 | 0.05 | 0.05 | 79 | 1013.0 |
| 20260905004351 | 87 | 137 | 11.0 | 21.0 | 0.00 | 0.05 | 0.05 | 74 | 1012.7 |
| 20260905003823 | 88 | 73 | 0.0 | 5.0 | 0.00 | 0.05 | 0.05 | 71 | 1012.7 |
| 20260905003335 | 88 | 108 | 1.0 | 5.0 | 0.00 | 0.05 | 0.05 | 70 | 1012.7 |
| 20260905002830 | 88 | 57 | 1.0 | 2.0 | 0.00 | 0.05 | 0.05 | 70 | 1012.3 |
| 20260905002324 | 88 | 80 | 0.0 | 1.0 | 0.00 | 0.05 | 0.05 | 70 | 1012.3 |
| 20260905001835 | 88 | 80 | 0.0 | 1.0 | 0.00 | 0.05 | 0.05 | 70 | 1012.3 |
| 20260905001331 | 88 | 80 | 0.0 | 3.0 | 0.00 | 0.05 | 0.05 | 70 | 1012.3 |
| 20260905000843 | 88 | 80 | 0.0 | 5.0 | 0.00 | 0.05 | 0.05 | 69 | 1012.3 |
| 20260905000340 | 89 | 80 | 3.0 | 5.0 | 0.00 | 0.05 | 0.05 | 69 | 1012.3 |
| 20260904235849 | 89 | 73 | 0.0 | 5.0 | 0.00 | 0.05 | 0.05 | 69 | 1012.3 |
| 20260904235338 | 89 | 73 | 0.0 | 5.0 | 0.00 | 0.05 | 0.05 | 69 | 1012.3 |
| 20260904234830 | 89 | 68 | 1.0 | 4.0 | 0.00 | 0.05 | 0.05 | 69 | 1012.3 |
| 20260904234324 | 89 | 78 | 1.0 | 6.0 | 0.00 | 0.05 | 0.05 | 69 | 1012.4 |
| 20260904233837 | 90 | 60 | 1.0 | 8.0 | 0.00 | 0.05 | 0.05 | 69 | 1012.5 |
| 20260904233330 | 90 | 81 | 1.0 | 5.0 | 0.00 | 0.05 | 0.05 | 69 | 1012.5 |
| 20260904232823 | 91 | 82 | 1.0 | 4.0 | 0.00 | 0.05 | 0.05 | 70 | 1012.4 |
| 20260904232403 | 91 | 75 | 2.0 | 4.0 | 0.00 | 0.05 | 0.05 | 68 | 1012.4 |
| 20260904231835 | 91 | 74 | 1.0 | 5.0 | 0.00 | 0.05 | 0.05 | 68 | 1012.4 |
| 20260904231327 | 91 | 70 | 1.0 | 5.0 | 0.00 | 0.05 | 0.05 | 68 | 1012.3 |
| 20260904230820 | 91 | 61 | 3.0 | 5.0 | 0.00 | 0.05 | 0.05 | 67 | 1012.3 |
| 20260904230330 | 91 | 68 | 1.0 | 5.0 | 0.00 | 0.05 | 0.05 | 68 | 1012.3 |
| 20260904225823 | 90 | 54 | 1.0 | 7.0 | 0.00 | 0.05 | 0.05 | 68 | 1012.4 |
| 20260904225402 | 91 | 73 | 3.0 | 7.0 | 0.00 | 0.05 | 0.05 | 66 | 1012.4 |
| 20260904224834 | 92 | 96 | 2.0 | 4.0 | 0.00 | 0.05 | 0.05 | 65 | 1012.4 |
| 20260904224330 | 91 | 84 | 1.0 | 7.0 | 0.00 | 0.05 | 0.05 | 66 | 1012.4 |
| 20260904223821 | 91 | 26 | 1.0 | 6.0 | 0.00 | 0.05 | 0.05 | 66 | 1012.4 |
| 20260904223337 | 92 | 64 | 1.0 | 7.0 | 0.00 | 0.05 | 0.05 | 66 | 1012.4 |
| 20260904222849 | 92 | 99 | 2.0 | 7.0 | 0.00 | 0.05 | 0.05 | 66 | 1012.7 |
| 20260904222340 | 93 | 123 | 2.0 | 10.0 | 0.00 | 0.05 | 0.05 | 66 | 1012.7 |
| 20260904221852 | 94 | 120 | 3.0 | 10.0 | 0.00 | 0.05 | 0.05 | 63 | 1012.7 |
| 20260904221324 | 94 | 36 | 2.0 | 4.0 | 0.00 | 0.05 | 0.05 | 59 | 1012.7 |
| 20260904220835 | 94 | 351 | 0.0 | 5.0 | 0.00 | 0.05 | 0.05 | 61 | 1012.7 |
| 20260904220328 | 94 | 45 | 0.0 | 5.0 | 0.00 | 0.05 | 0.05 | 59 | 1012.7 |
| 20260904215820 | 94 | 223 | 2.0 | 3.0 | 0.00 | 0.05 | 0.05 | 61 | 1012.8 |
| 20260904215342 | 94 | 46 | 2.0 | 3.0 | 0.00 | 0.05 | 0.05 | 62 | 1012.8 |
| 20260904214855 | 93 | 334 | 2.0 | 4.0 | 0.00 | 0.05 | 0.05 | 61 | 1012.7 |
| 20260904214329 | 94 | 244 | 3.0 | 5.0 | 0.00 | 0.05 | 0.05 | 61 | 1012.8 |
| 20260904213823 | 94 | 182 | 1.0 | 5.0 | 0.00 | 0.06 | 0.05 | 62 | 1012.8 |
| 20260904213335 | 93 | 176 | 1.0 | 5.0 | 0.00 | 0.06 | 0.05 | 62 | 1012.8 |
| 20260904212828 | 93 | 222 | 2.0 | 4.0 | 0.00 | 0.06 | 0.05 | 65 | 1012.8 |
| 20260904212341 | 92 | 220 | 0.0 | 4.0 | 0.00 | 0.06 | 0.05 | 64 | 1012.8 |
| 20260904211833 | 92 | 59 | 2.0 | 4.0 | 0.00 | 0.06 | 0.05 | 65 | 1012.8 |
| 20260904211325 | 92 | 357 | 1.0 | 3.0 | 0.00 | 0.06 | 0.05 | 66 | 1013.2 |
| 20260904210837 | 92 | 66 | 0.0 | 4.0 | 0.00 | 0.06 | 0.05 | 66 | 1013.2 |
| 20260904210331 | 92 | 81 | 2.0 | 5.0 | 0.00 | 0.06 | 0.05 | 65 | 1013.2 |
| 20260904205820 | 93 | 66 | 1.0 | 5.0 | 0.00 | 0.06 | 0.05 | 64 | 1013.4 |
| 20260904205403 | 93 | 23 | 1.0 | 4.0 | 0.00 | 0.06 | 0.05 | 63 | 1013.4 |
| 20260904204834 | 93 | 205 | 1.0 | 3.0 | 0.00 | 0.06 | 0.05 | 65 | 1013.4 |
| 20260904204328 | 92 | 256 | 2.0 | 3.0 | 0.00 | 0.06 | 0.05 | 65 | 1013.8 |
| 20260904203838 | 92 | 194 | 1.0 | 5.0 | 0.00 | 0.10 | 0.05 | 65 | 1013.8 |
| 20260904203330 | 92 | 140 | 1.0 | 5.0 | 0.00 | 0.10 | 0.05 | 67 | 1013.8 |
| 20260904202822 | 91 | 141 | 0.0 | 3.0 | 0.00 | 0.10 | 0.05 | 71 | 1013.9 |
| 20260904202337 | 90 | 141 | 1.0 | 3.0 | 0.00 | 0.10 | 0.05 | 72 | 1013.9 |
| 20260904201832 | 90 | 322 | 2.0 | 5.0 | 0.00 | 0.10 | 0.05 | 72 | 1013.9 |
| 20260904201347 | 91 | 230 | 4.0 | 5.0 | 0.00 | 0.10 | 0.05 | 71 | 1013.9 |
| 20260904200858 | 90 | 157 | 0.0 | 3.0 | 0.00 | 0.10 | 0.05 | 73 | 1013.9 |
| 20260904200328 | 89 | 227 | 1.0 | 4.0 | 0.00 | 0.10 | 0.05 | 75 | 1013.9 |
| 20260904195900 | 88 | 320 | 2.0 | 4.0 | 0.00 | 0.10 | 0.05 | 74 | 1014.3 |
| 20260904195334 | 88 | 260 | 3.0 | 4.0 | 0.00 | 0.10 | 0.05 | 73 | 1014.3 |
| 20260904194827 | 88 | 72 | 2.0 | 5.0 | 0.00 | 0.10 | 0.05 | 75 | 1014.3 |
| 20260904194339 | 87 | 129 | 3.0 | 5.0 | 0.00 | 0.10 | 0.05 | 75 | 1014.3 |
| 20260904193830 | 86 | 236 | 0.0 | 3.0 | 0.00 | 0.21 | 0.05 | 78 | 1014.3 |
| 20260904193325 | 84 | 220 | 1.0 | 3.0 | 0.00 | 0.21 | 0.05 | 81 | 1014.3 |
| 20260904192844 | 82 | 194 | 2.0 | 2.0 | 0.00 | 0.21 | 0.05 | 85 | 1014.4 |
| 20260904192335 | 81 | 139 | 0.0 | 3.0 | 0.00 | 0.21 | 0.05 | 86 | 1014.4 |
| 20260904191829 | 81 | 139 | 0.0 | 3.0 | 0.00 | 0.21 | 0.05 | 88 | 1014.4 |
| 20260904191322 | 80 | 137 | 1.0 | 3.0 | 0.00 | 0.21 | 0.05 | 88 | 1014.8 |
| 20260904190836 | 80 | 232 | 0.0 | 3.0 | 0.00 | 0.21 | 0.05 | 89 | 1014.8 |
| 20260904190325 | 79 | 117 | 0.0 | 4.0 | 0.00 | 0.21 | 0.05 | 89 | 1014.8 |
| 20260904185841 | 79 | 96 | 2.0 | 4.0 | 0.00 | 0.21 | 0.05 | 90 | 1015.1 |
| 20260904185332 | 79 | 63 | 0.0 | 2.0 | 0.00 | 0.21 | 0.05 | 92 | 1015.1 |
| 20260904184824 | 79 | 63 | 0.0 | 4.0 | 0.00 | 0.21 | 0.05 | 92 | 1015.1 |
| 20260904184337 | 78 | 63 | 2.0 | 4.0 | 0.01 | 0.21 | 0.05 | 92 | 1015.3 |
| 20260904183830 | 78 | 90 | 2.0 | 4.0 | 0.02 | 0.62 | 0.05 | 93 | 1015.3 |
| 20260904183322 | 78 | 54 | 0.0 | 0.0 | 0.02 | 0.62 | 0.05 | 94 | 1015.3 |
| 20260904182839 | 78 | 55 | 0.0 | 0.0 | 0.03 | 0.62 | 0.05 | 94 | 1015.6 |
| 20260904182331 | 77 | 55 | 0.0 | 0.0 | 0.04 | 0.62 | 0.05 | 94 | 1015.6 |
| 20260904181825 | 77 | 55 | 0.0 | 2.0 | 0.05 | 0.62 | 0.05 | 93 | 1015.6 |
| 20260904181339 | 77 | 326 | 0.0 | 2.0 | 0.05 | 0.62 | 0.05 | 94 | 1015.9 |
| 20260904180833 | 77 | 323 | 1.0 | 2.0 | 0.05 | 0.62 | 0.05 | 95 | 1015.9 |
| 20260904180325 | 76 | 10 | 0.0 | 1.0 | 0.05 | 0.62 | 0.05 | 94 | 1015.9 |
| 20260904175835 | 76 | 10 | 0.0 | 1.0 | 0.05 | 0.62 | 0.05 | 94 | 1015.7 |
| 20260904175329 | 76 | 10 | 0.0 | 1.0 | 0.05 | 0.62 | 0.05 | 94 | 1015.7 |
| 20260904174825 | 75 | 10 | 0.0 | 3.0 | 0.05 | 0.62 | 0.05 | 93 | 1015.7 |
| 20260904174337 | 75 | 10 | 0.0 | 4.0 | 0.04 | 0.61 | 0.04 | 93 | 1016.0 |
| 20260904173849 | 74 | 238 | 2.0 | 7.0 | 0.03 | 0.60 | 0.03 | 91 | 1016.0 |
| 20260904173343 | 74 | 285 | 1.0 | 9.0 | 0.03 | 0.60 | 0.03 | 89 | 1016.0 |
| 20260904172856 | 76 | 316 | 4.0 | 11.0 | 0.02 | 0.59 | 0.02 | 87 | 1015.9 |
| 20260904172330 | 77 | 10 | 2.0 | 12.0 | 0.01 | 0.58 | 0.01 | 85 | 1015.9 |
| 20260904171821 | 79 | 260 | 4.0 | 16.0 | 0.00 | 0.57 | 0.00 | 82 | 1015.9 |
| 20260904171333 | 80 | 195 | 6.0 | 20.0 | 0.00 | 0.57 | 0.00 | 81 | 1016.4 |
| 20260904170826 | 84 | 241 | 7.0 | 20.0 | 0.00 | 0.57 | 0.00 | 77 | 1016.4 |
| 20260904170338 | 87 | 246 | 8.0 | 15.0 | 0.00 | 0.57 | 0.00 | 77 | 1016.4 |
| 20260904165828 | 87 | 150 | 5.0 | 10.0 | 0.00 | 0.57 | 0.00 | 81 | 1015.4 |
| 20260904165342 | 88 | 130 | 5.0 | 9.0 | 0.00 | 0.57 | 0.00 | 79 | 1015.4 |
| 20260904164837 | 89 | 125 | 5.0 | 9.0 | 0.00 | 0.57 | 0.00 | 78 | 1015.4 |
| 20260904164329 | 88 | 67 | 1.0 | 4.0 | 0.00 | 0.57 | 0.00 | 78 | 1015.5 |
| 20260904163823 | 89 | 78 | 2.0 | 5.0 | 0.00 | 0.57 | 0.00 | 78 | 1015.5 |
| 20260904163335 | 89 | 45 | 1.0 | 5.0 | 0.00 | 0.57 | 0.00 | 78 | 1015.5 |
| 20260904162831 | 89 | 51 | 2.0 | 9.0 | 0.00 | 0.57 | 0.00 | 76 | 1015.3 |
| 20260904162322 | 89 | 56 | 4.0 | 9.0 | 0.00 | 0.57 | 0.00 | 76 | 1015.3 |
| 20260904161834 | 89 | 128 | 6.0 | 9.0 | 0.00 | 0.57 | 0.00 | 76 | 1015.3 |
| 20260904161326 | 89 | 87 | 1.0 | 9.0 | 0.00 | 0.57 | 0.00 | 76 | 1015.1 |
| 20260904160840 | 89 | 143 | 2.0 | 9.0 | 0.00 | 0.57 | 0.00 | 77 | 1015.1 |
| 20260904160332 | 89 | 171 | 1.0 | 6.0 | 0.00 | 0.57 | 0.00 | 78 | 1015.1 |
| 20260904155842 | 89 | 39 | 1.0 | 5.0 | 0.00 | 0.57 | 0.00 | 77 | 1015.0 |
| 20260904155357 | 89 | 23 | 2.0 | 6.0 | 0.00 | 0.57 | 0.00 | 77 | 1015.0 |
| 20260904154829 | 89 | 115 | 4.0 | 6.0 | 0.00 | 0.57 | 0.00 | 77 | 1015.0 |
| 20260904154324 | 89 | 78 | 1.0 | 3.0 | 0.00 | 0.57 | 0.00 | 80 | 1014.9 |
| 20260904153839 | 88 | 18 | 0.0 | 4.0 | 0.00 | 0.58 | 0.00 | 79 | 1014.9 |
| 20260904153330 | 88 | 67 | 1.0 | 4.0 | 0.00 | 0.58 | 0.00 | 82 | 1014.9 |
| 20260904152824 | 87 | 57 | 0.0 | 3.0 | 0.00 | 0.58 | 0.00 | 85 | 1014.9 |
| 20260904152331 | 86 | 47 | 0.0 | 3.0 | 0.00 | 0.58 | 0.00 | 85 | 1014.9 |
| 20260904151824 | 86 | 100 | 1.0 | 4.0 | 0.00 | 0.58 | 0.00 | 87 | 1014.9 |
| 20260904151335 | 86 | 69 | 0.0 | 4.0 | 0.00 | 0.58 | 0.00 | 88 | 1014.9 |
| 20260904150849 | 85 | 149 | 0.0 | 4.0 | 0.00 | 0.58 | 0.00 | 88 | 1014.9 |
| 20260904150322 | 85 | 60 | 2.0 | 5.0 | 0.00 | 0.58 | 0.00 | 88 | 1014.9 |
| 20260904145859 | 85 | 111 | 2.0 | 5.0 | 0.00 | 0.58 | 0.00 | 90 | 1014.9 |
| 20260904145348 | 85 | 58 | 1.0 | 2.0 | 0.00 | 0.58 | 0.00 | 91 | 1014.9 |
| 20260904144839 | 84 | 109 | 0.0 | 2.0 | 0.00 | 0.58 | 0.00 | 91 | 1014.9 |
| 20260904144331 | 83 | 133 | 0.0 | 5.0 | 0.00 | 0.58 | 0.00 | 92 | 1014.9 |
| 20260904143824 | 83 | 72 | 1.0 | 5.0 | 0.00 | 0.58 | 0.00 | 92 | 1014.9 |
| 20260904143339 | 83 | 138 | 4.0 | 5.0 | 0.00 | 0.58 | 0.00 | 93 | 1014.9 |
| 20260904142833 | 82 | 133 | 2.0 | 4.0 | 0.00 | 0.58 | 0.00 | 94 | 1014.9 |
| 20260904142326 | 82 | 135 | 1.0 | 4.0 | 0.00 | 0.58 | 0.00 | 95 | 1014.9 |
| 20260904141838 | 82 | 134 | 2.0 | 5.0 | 0.00 | 0.58 | 0.00 | 96 | 1014.9 |
| 20260904141333 | 81 | 129 | 0.0 | 5.0 | 0.00 | 0.58 | 0.00 | 96 | 1014.8 |
| 20260904140825 | 81 | 87 | 0.0 | 2.0 | 0.00 | 0.58 | 0.00 | 97 | 1014.8 |
| 20260904140337 | 81 | 133 | 0.0 | 3.0 | 0.00 | 0.58 | 0.00 | 97 | 1014.8 |
| 20260904135824 | 81 | 59 | 0.0 | 1.0 | 0.00 | 0.58 | 0.00 | 97 | 1014.8 |
| 20260904135334 | 80 | 59 | 0.0 | 0.0 | 0.00 | 0.58 | 0.00 | 97 | 1014.8 |
| 20260904134828 | 80 | 59 | 0.0 | 0.0 | 0.00 | 0.58 | 0.00 | 97 | 1014.8 |
| 20260904134339 | 80 | 59 | 0.0 | 3.0 | 0.00 | 0.58 | 0.00 | 97 | 1014.8 |
| 20260904133835 | 80 | 59 | 0.0 | 3.0 | 0.00 | 0.58 | 0.00 | 97 | 1014.8 |
| 20260904133343 | 80 | 60 | 0.0 | 0.0 | 0.00 | 0.58 | 0.00 | 97 | 1014.8 |
| 20260904132834 | 80 | 60 | 0.0 | 0.0 | 0.00 | 0.58 | 0.00 | 97 | 1014.6 |
| 20260904132350 | 80 | 119 | 0.0 | 0.0 | 0.00 | 0.58 | 0.00 | 97 | 1014.6 |
| 20260904131823 | 80 | 119 | 0.0 | 0.0 | 0.00 | 0.58 | 0.00 | 97 | 1014.6 |
| 20260904131335 | 79 | 119 | 0.0 | 0.0 | 0.00 | 0.58 | 0.00 | 97 | 1014.4 |
| 20260904130827 | 79 | 119 | 0.0 | 0.0 | 0.00 | 0.58 | 0.00 | 97 | 1014.4 |
| 20260904130340 | 79 | 119 | 0.0 | 0.0 | 0.00 | 0.58 | 0.00 | 97 | 1014.4 |
| 20260904125831 | 79 | 119 | 0.0 | 0.0 | 0.00 | 0.58 | 0.00 | 97 | 1014.3 |
| 20260904125343 | 79 | 119 | 0.0 | 0.0 | 0.00 | 0.58 | 0.00 | 97 | 1014.3 |
| 20260904124835 | 79 | 119 | 0.0 | 0.0 | 0.00 | 0.58 | 0.00 | 97 | 1014.3 |
| 20260904124348 | 79 | 119 | 0.0 | 0.0 | 0.00 | 0.58 | 0.00 | 97 | 1014.0 |
| 20260904123901 | 79 | 119 | 0.0 | 0.0 | 0.00 | 0.58 | 0.00 | 97 | 1014.0 |
| 20260904123334 | 79 | 119 | 0.0 | 0.0 | 0.00 | 0.58 | 0.00 | 97 | 1014.0 |
| 20260904122829 | 79 | 119 | 0.0 | 0.0 | 0.00 | 0.58 | 0.00 | 97 | 1013.8 |
| 20260904122322 | 79 | 119 | 0.0 | 0.0 | 0.00 | 0.58 | 0.00 | 97 | 1013.8 |
| 20260904121835 | 79 | 119 | 0.0 | 0.0 | 0.00 | 0.58 | 0.00 | 96 | 1013.8 |
| 20260904121329 | 79 | 119 | 0.0 | 0.0 | 0.00 | 0.58 | 0.00 | 96 | 1013.7 |
| 20260904120823 | 79 | 119 | 0.0 | 0.0 | 0.00 | 0.58 | 0.00 | 97 | 1013.7 |
| 20260904120336 | 80 | 119 | 0.0 | 0.0 | 0.00 | 0.58 | 0.00 | 96 | 1013.7 |
| 20260904115825 | 80 | 119 | 0.0 | 0.0 | 0.00 | 0.58 | 0.00 | 97 | 1013.6 |
| 20260904115320 | 80 | 119 | 0.0 | 0.0 | 0.00 | 0.58 | 0.00 | 97 | 1013.6 |
| 20260904114838 | 80 | 119 | 0.0 | 0.0 | 0.00 | 0.58 | 0.00 | 97 | 1013.6 |
| 20260904114330 | 79 | 119 | 0.0 | 0.0 | 0.00 | 0.58 | 0.00 | 97 | 1013.7 |
| 20260904113825 | 79 | 64 | 0.0 | 0.0 | 0.00 | 0.58 | 0.00 | 96 | 1013.7 |
| 20260904113405 | 79 | 64 | 0.0 | 0.0 | 0.00 | 0.58 | 0.00 | 96 | 1013.7 |
| 20260904112857 | 79 | 64 | 0.0 | 0.0 | 0.00 | 0.58 | 0.00 | 96 | 1013.7 |
| 20260904112334 | 79 | 64 | 0.0 | 0.0 | 0.00 | 0.58 | 0.00 | 96 | 1013.7 |
| 20260904111829 | 80 | 64 | 0.0 | 0.0 | 0.00 | 0.58 | 0.00 | 96 | 1013.7 |
| 20260904111321 | 79 | 64 | 0.0 | 0.0 | 0.00 | 0.58 | 0.00 | 97 | 1013.7 |
| 20260904110836 | 80 | 64 | 0.0 | 0.0 | 0.00 | 0.58 | 0.00 | 96 | 1013.7 |
| 20260904110329 | 80 | 64 | 0.0 | 0.0 | 0.00 | 0.58 | 0.00 | 96 | 1013.7 |
| 20260904105843 | 80 | 64 | 0.0 | 0.0 | 0.00 | 0.58 | 0.00 | 96 | 1013.3 |
| 20260904105355 | 80 | 64 | 0.0 | 0.0 | 0.00 | 0.58 | 0.00 | 96 | 1013.3 |
| 20260904104826 | 80 | 64 | 0.0 | 0.0 | 0.00 | 0.58 | 0.00 | 96 | 1013.3 |
| 20260904104339 | 80 | 64 | 0.0 | 2.0 | 0.00 | 0.58 | 0.00 | 96 | 1013.2 |
| 20260904103831 | 80 | 64 | 0.0 | 2.0 | 0.00 | 0.58 | 0.00 | 96 | 1013.2 |
| 20260904103322 | 80 | 178 | 0.0 | 0.0 | 0.00 | 0.58 | 0.00 | 96 | 1013.2 |
| 20260904102835 | 80 | 178 | 0.0 | 0.0 | 0.00 | 0.58 | 0.00 | 96 | 1013.1 |
| 20260904102346 | 80 | 178 | 0.0 | 0.0 | 0.00 | 0.58 | 0.00 | 96 | 1013.1 |
| 20260904101857 | 80 | 178 | 0.0 | 0.0 | 0.00 | 0.58 | 0.00 | 96 | 1013.1 |
| 20260904101331 | 80 | 178 | 0.0 | 0.0 | 0.00 | 0.58 | 0.00 | 96 | 1013.2 |
| 20260904100847 | 80 | 178 | 0.0 | 0.0 | 0.00 | 0.58 | 0.00 | 96 | 1013.2 |
| 20260904100403 | 80 | 178 | 0.0 | 0.0 | 0.00 | 0.58 | 0.00 | 95 | 1013.2 |
| 20260904095835 | 80 | 178 | 0.0 | 0.0 | 0.00 | 0.58 | 0.00 | 95 | 1013.1 |
| 20260904095331 | 80 | 178 | 0.0 | 0.0 | 0.00 | 0.58 | 0.00 | 95 | 1013.1 |
| 20260904094826 | 80 | 178 | 0.0 | 0.0 | 0.00 | 0.58 | 0.00 | 95 | 1013.1 |
| 20260904094340 | 80 | 178 | 0.0 | 0.0 | 0.00 | 0.58 | 0.00 | 95 | 1013.0 |
| 20260904093835 | 80 | 178 | 0.0 | 0.0 | 0.00 | 0.58 | 0.00 | 95 | 1013.0 |
| 20260904093329 | 80 | 178 | 0.0 | 0.0 | 0.00 | 0.58 | 0.00 | 95 | 1013.0 |
| 20260904092840 | 80 | 178 | 0.0 | 0.0 | 0.00 | 0.58 | 0.00 | 95 | 1012.9 |
| 20260904092354 | 80 | 178 | 0.0 | 0.0 | 0.00 | 0.58 | 0.00 | 95 | 1012.9 |
| 20260904091826 | 80 | 178 | 0.0 | 0.0 | 0.00 | 0.58 | 0.00 | 95 | 1012.9 |
| 20260904091337 | 80 | 178 | 0.0 | 0.0 | 0.00 | 0.58 | 0.00 | 95 | 1012.9 |
| 20260904090828 | 80 | 178 | 0.0 | 0.0 | 0.00 | 0.58 | 0.00 | 95 | 1012.9 |
| 20260904090323 | 80 | 178 | 0.0 | 0.0 | 0.00 | 0.58 | 0.00 | 95 | 1012.9 |
| 20260904085833 | 80 | 178 | 0.0 | 0.0 | 0.00 | 0.58 | 0.00 | 94 | 1012.9 |
| 20260904085345 | 80 | 178 | 0.0 | 0.0 | 0.00 | 0.58 | 0.00 | 94 | 1012.9 |
| 20260904084840 | 80 | 178 | 0.0 | 0.0 | 0.00 | 0.58 | 0.00 | 94 | 1012.9 |
| 20260904084400 | 80 | 178 | 0.0 | 0.0 | 0.00 | 0.58 | 0.00 | 94 | 1012.9 |
| 20260904083834 | 80 | 178 | 0.0 | 0.0 | 0.00 | 0.58 | 0.00 | 94 | 1012.9 |
| 20260904083331 | 80 | 178 | 0.0 | 0.0 | 0.00 | 0.58 | 0.00 | 94 | 1012.9 |
| 20260904082826 | 80 | 178 | 0.0 | 0.0 | 0.00 | 0.58 | 0.00 | 94 | 1013.0 |
| 20260904082322 | 80 | 178 | 0.0 | 0.0 | 0.00 | 0.58 | 0.00 | 94 | 1013.0 |
| 20260904081822 | 80 | 178 | 0.0 | 0.0 | 0.00 | 0.58 | 0.00 | 94 | 1013.0 |
| 20260904081336 | 81 | 178 | 0.0 | 0.0 | 0.00 | 0.58 | 0.00 | 94 | 1013.1 |
| 20260904080849 | 80 | 178 | 0.0 | 0.0 | 0.00 | 0.58 | 0.00 | 94 | 1013.1 |
| 20260904080324 | 80 | 178 | 0.0 | 0.0 | 0.00 | 0.58 | 0.00 | 93 | 1013.1 |
| 20260904075835 | 81 | 178 | 0.0 | 0.0 | 0.00 | 0.58 | 0.00 | 93 | 1013.2 |
| 20260904075341 | 81 | 178 | 0.0 | 0.0 | 0.00 | 0.58 | 0.00 | 93 | 1013.2 |
| 20260904074854 | 81 | 178 | 0.0 | 0.0 | 0.00 | 0.58 | 0.00 | 93 | 1013.2 |
| 20260904074327 | 81 | 178 | 0.0 | 0.0 | 0.00 | 0.58 | 0.00 | 93 | 1013.3 |
| 20260904073837 | 81 | 178 | 0.0 | 0.0 | 0.00 | 0.58 | 0.00 | 93 | 1013.3 |
| 20260904073330 | 81 | 178 | 0.0 | 0.0 | 0.00 | 0.58 | 0.00 | 92 | 1013.3 |
| 20260904072825 | 81 | 178 | 0.0 | 0.0 | 0.00 | 0.58 | 0.00 | 92 | 1013.3 |
| 20260904072320 | 81 | 178 | 0.0 | 0.0 | 0.00 | 0.58 | 0.00 | 92 | 1013.3 |
| 20260904071838 | 81 | 178 | 0.0 | 0.0 | 0.00 | 0.58 | 0.00 | 92 | 1013.3 |
| 20260904071332 | 81 | 178 | 0.0 | 0.0 | 0.00 | 0.58 | 0.00 | 92 | 1013.3 |
| 20260904070827 | 81 | 178 | 0.0 | 0.0 | 0.00 | 0.58 | 0.00 | 92 | 1013.3 |
| 20260904070322 | 82 | 178 | 0.0 | 3.0 | 0.00 | 0.58 | 0.00 | 92 | 1013.3 |
| 20260904065839 | 82 | 178 | 1.0 | 3.0 | 0.00 | 0.58 | 0.00 | 92 | 1013.4 |
| 20260904065334 | 82 | 178 | 1.0 | 3.0 | 0.00 | 0.58 | 0.00 | 92 | 1013.4 |
| 20260904064828 | 82 | 149 | 0.0 | 3.0 | 0.00 | 0.58 | 0.00 | 92 | 1013.4 |
| 20260904064323 | 82 | 194 | 2.0 | 4.0 | 0.00 | 0.58 | 0.00 | 92 | 1013.4 |
| 20260904063903 | 82 | 211 | 2.0 | 4.0 | 0.00 | 0.58 | 0.00 | 92 | 1013.4 |
| 20260904063355 | 82 | 181 | 2.0 | 4.0 | 0.00 | 0.58 | 0.00 | 91 | 1013.4 |
| 20260904062848 | 82 | 156 | 2.0 | 4.0 | 0.00 | 0.58 | 0.00 | 91 | 1013.4 |
| 20260904062344 | 82 | 140 | 1.0 | 4.0 | 0.00 | 0.58 | 0.00 | 91 | 1013.4 |
| 20260904061901 | 82 | 117 | 0.0 | 4.0 | 0.00 | 0.58 | 0.00 | 91 | 1013.4 |
| 20260904061356 | 82 | 192 | 0.0 | 4.0 | 0.00 | 0.58 | 0.00 | 91 | 1013.5 |
| 20260904060830 | 82 | 182 | 1.0 | 4.0 | 0.00 | 0.58 | 0.00 | 92 | 1013.5 |
| 20260904060325 | 82 | 131 | 1.0 | 4.0 | 0.00 | 0.58 | 0.00 | 92 | 1013.5 |
| 20260904055853 | 82 | 136 | 2.0 | 5.0 | 0.00 | 0.58 | 0.00 | 91 | 1013.4 |
| 20260904055326 | 82 | 143 | 1.0 | 5.0 | 0.00 | 0.58 | 0.00 | 91 | 1013.4 |
| 20260904054838 | 82 | 134 | 3.0 | 4.0 | 0.00 | 0.58 | 0.00 | 92 | 1013.4 |
| 20260904054333 | 82 | 128 | 2.0 | 4.0 | 0.00 | 0.58 | 0.00 | 91 | 1013.4 |
| 20260904053830 | 82 | 125 | 1.0 | 3.0 | 0.00 | 0.58 | 0.00 | 91 | 1013.4 |
| 20260904053345 | 82 | 137 | 1.0 | 4.0 | 0.00 | 0.58 | 0.00 | 91 | 1013.4 |
| 20260904052840 | 82 | 134 | 1.0 | 4.0 | 0.00 | 0.58 | 0.00 | 91 | 1013.3 |